| time (UTC) | temp C | wind direction | speed KPH | gust KPH | rain 1hr cm | rain 24hr cm | rain mn cm | humidity % | barometer mb |
| 20260505051537 | 18 | 122 | 6.4 | 12.9 | 0.00 | 0.00 | 0.00 | 60 | 1011.5 |
| 20260505050326 | 18 | 171 | 6.4 | 16.1 | 0.00 | 0.00 | 0.00 | 62 | 1011.5 |
| 20260505041526 | 17 | 162 | 4.8 | 9.7 | 0.00 | 0.00 | 0.00 | 63 | 1011.1 |
| 20260505040919 | 17 | 182 | 6.4 | 11.3 | 0.00 | 0.00 | 0.00 | 64 | 1011.1 |
| 20260505035138 | 17 | 168 | 4.8 | 8.0 | 0.00 | 0.00 | 0.00 | 64 | 1011.1 |
| 20260505034556 | 17 | 93 | 3.2 | 6.4 | 0.00 | 0.00 | 0.00 | 65 | 1011.1 |
| 20260505033913 | 17 | 150 | 4.8 | 9.7 | 0.00 | 0.00 | 0.00 | 64 | 1011.1 |
| 20260505033320 | 17 | 57 | 4.8 | 9.7 | 0.00 | 0.00 | 0.00 | 64 | 1011.1 |
| 20260505032719 | 17 | 156 | 3.2 | 4.8 | 0.00 | 0.00 | 0.00 | 64 | 1011.1 |
| 20260505032128 | 17 | 189 | 4.8 | 9.7 | 0.00 | 0.00 | 0.00 | 64 | 1011.1 |
| 20260505031514 | 17 | 160 | 6.4 | 8.0 | 0.00 | 0.00 | 0.00 | 64 | 1011.1 |
| 20260505030941 | 17 | 231 | 3.2 | 9.7 | 0.00 | 0.00 | 0.00 | 64 | 1011.1 |
| 20260505030344 | 17 | 194 | 6.4 | 14.5 | 0.00 | 0.00 | 0.00 | 64 | 1011.1 |
| 20260505025743 | 17 | 123 | 6.4 | 8.0 | 0.00 | 0.00 | 0.00 | 65 | 1011.1 |
| 20260505025129 | 17 | 142 | 1.6 | 4.8 | 0.00 | 0.00 | 0.00 | 65 | 1011.1 |
| 20260505024538 | 17 | 76 | 1.6 | 4.8 | 0.00 | 0.00 | 0.00 | 65 | 1011.1 |
| 20260505022123 | 17 | 16 | 0.0 | 8.0 | 0.00 | 0.00 | 0.00 | 63 | 1011.1 |
| 20260505021511 | 17 | 42 | 3.2 | 9.7 | 0.00 | 0.00 | 0.00 | 64 | 1011.1 |
| 20260505020926 | 17 | 132 | 4.8 | 8.0 | 0.00 | 0.00 | 0.00 | 64 | 1010.8 |
| 20260505020317 | 17 | 143 | 3.2 | 6.4 | 0.00 | 0.00 | 0.00 | 64 | 1011.1 |
| 20260505015154 | 17 | 17 | 4.8 | 8.0 | 0.00 | 0.00 | 0.00 | 63 | 1011.1 |
| 20260505014530 | 17 | 54 | 3.2 | 6.4 | 0.00 | 0.00 | 0.00 | 64 | 1010.8 |
| 20260505013918 | 18 | 128 | 1.6 | 4.8 | 0.00 | 0.00 | 0.00 | 63 | 1011.1 |
| 20260505013318 | 18 | 322 | 3.2 | 4.8 | 0.00 | 0.00 | 0.00 | 63 | 1011.1 |
| 20260505012711 | 18 | 61 | 3.2 | 8.0 | 0.00 | 0.00 | 0.00 | 63 | 1011.1 |
| 20260505012147 | 18 | 33 | 1.6 | 6.4 | 0.00 | 0.00 | 0.00 | 62 | 1011.1 |
| 20260505011536 | 18 | 106 | 0.0 | 4.8 | 0.00 | 0.00 | 0.00 | 62 | 1011.1 |
| 20260505010914 | 18 | 350 | 0.0 | 4.8 | 0.00 | 0.00 | 0.00 | 61 | 1011.1 |
| 20260505010331 | 18 | 16 | 0.0 | 6.4 | 0.00 | 0.00 | 0.00 | 61 | 1011.1 |
| 20260505005751 | 18 | 13 | 3.2 | 8.0 | 0.00 | 0.00 | 0.00 | 60 | 1010.8 |
| 20260505005121 | 18 | 14 | 3.2 | 3.2 | 0.00 | 0.00 | 0.00 | 61 | 1011.1 |
| 20260505004534 | 18 | 40 | 3.2 | 6.4 | 0.00 | 0.00 | 0.00 | 60 | 1011.1 |
| 20260505003929 | 18 | 34 | 3.2 | 6.4 | 0.00 | 0.00 | 0.00 | 60 | 1011.1 |
| 20260505003354 | 19 | 358 | 3.2 | 4.8 | 0.00 | 0.00 | 0.00 | 59 | 1011.1 |
| 20260505002111 | 19 | 158 | 3.2 | 4.8 | 0.00 | 0.00 | 0.00 | 59 | 1011.1 |
| 20260505001513 | 19 | 89 | 0.0 | 6.4 | 0.00 | 0.00 | 0.00 | 59 | 1011.1 |
| 20260505000916 | 19 | 106 | 1.6 | 6.4 | 0.00 | 0.00 | 0.00 | 58 | 1011.1 |
| 20260505000318 | 19 | 141 | 4.8 | 4.8 | 0.00 | 0.00 | 0.00 | 58 | 1011.1 |
| 20260504235715 | 20 | 148 | 3.2 | 6.4 | 0.00 | 0.00 | 0.00 | 57 | 1011.1 |
| 20260504234528 | 20 | 172 | 3.2 | 6.4 | 0.00 | 0.00 | 0.00 | 56 | 1011.1 |
| 20260504233933 | 20 | 135 | 3.2 | 4.8 | 0.00 | 0.00 | 0.00 | 56 | 1011.1 |
| 20260504233341 | 20 | 192 | 4.8 | 8.0 | 0.00 | 0.00 | 0.00 | 56 | 1011.5 |
| 20260504232715 | 20 | 171 | 6.4 | 11.3 | 0.00 | 0.00 | 0.00 | 55 | 1011.5 |
| 20260504232153 | 20 | 173 | 8.0 | 11.3 | 0.00 | 0.00 | 0.00 | 56 | 1011.5 |
| 20260504231519 | 20 | 156 | 11.3 | 12.9 | 0.00 | 0.00 | 0.00 | 55 | 1011.8 |
| 20260504230952 | 20 | 176 | 4.8 | 4.8 | 0.00 | 0.00 | 0.00 | 55 | 1011.5 |
| 20260504225714 | 20 | 208 | 6.4 | 16.1 | 0.00 | 0.00 | 0.00 | 54 | 1011.5 |
| 20260504225147 | 20 | 191 | 6.4 | 14.5 | 0.00 | 0.00 | 0.00 | 54 | 1011.5 |
| 20260504224511 | 20 | 261 | 4.8 | 8.0 | 0.00 | 0.00 | 0.00 | 54 | 1011.8 |
| 20260504223935 | 20 | 180 | 9.7 | 9.7 | 0.00 | 0.00 | 0.00 | 53 | 1011.5 |
| 20260504223316 | 21 | 273 | 6.4 | 11.3 | 0.00 | 0.00 | 0.00 | 51 | 1011.8 |
| 20260504222753 | 20 | 190 | 11.3 | 14.5 | 0.00 | 0.00 | 0.00 | 52 | 1011.8 |
| 20260504222112 | 21 | 262 | 3.2 | 14.5 | 0.00 | 0.00 | 0.00 | 53 | 1011.5 |
| 20260504221522 | 21 | 289 | 4.8 | 16.1 | 0.00 | 0.00 | 0.00 | 53 | 1011.5 |
| 20260504220927 | 21 | 170 | 8.0 | 11.3 | 0.00 | 0.00 | 0.00 | 54 | 1011.5 |
| 20260504220316 | 21 | 224 | 6.4 | 27.4 | 0.00 | 0.00 | 0.00 | 52 | 1011.5 |
| 20260504215123 | 21 | 207 | 6.4 | 9.7 | 0.00 | 0.00 | 0.00 | 52 | 1011.5 |
| 20260504214552 | 21 | 186 | 11.3 | 22.5 | 0.00 | 0.00 | 0.00 | 52 | 1011.1 |
| 20260504213950 | 21 | 170 | 6.4 | 16.1 | 0.00 | 0.00 | 0.00 | 51 | 1011.1 |
| 20260504211527 | 21 | 253 | 6.4 | 12.9 | 0.00 | 0.00 | 0.00 | 55 | 1011.5 |
| 20260504210950 | 21 | 215 | 3.2 | 17.7 | 0.00 | 0.00 | 0.00 | 52 | 1011.5 |
| 20260504210330 | 21 | 183 | 4.8 | 9.7 | 0.00 | 0.00 | 0.00 | 54 | 1011.1 |
| 20260504205734 | 21 | 158 | 4.8 | 9.7 | 0.00 | 0.00 | 0.00 | 54 | 1011.1 |
| 20260504205140 | 20 | 166 | 6.4 | 9.7 | 0.00 | 0.00 | 0.00 | 55 | 1011.1 |
| 20260504204542 | 21 | 203 | 0.0 | 6.4 | 0.00 | 0.00 | 0.00 | 54 | 1011.5 |
| 20260504203931 | 20 | 152 | 11.3 | 14.5 | 0.00 | 0.00 | 0.00 | 56 | 1011.5 |
| 20260504202734 | 20 | 230 | 1.6 | 24.1 | 0.00 | 0.00 | 0.00 | 54 | 1011.5 |
| 20260504202114 | 20 | 201 | 3.2 | 19.3 | 0.00 | 0.00 | 0.00 | 52 | 1011.8 |
| 20260504201541 | 20 | 193 | 11.3 | 19.3 | 0.00 | 0.00 | 0.00 | 53 | 1011.5 |
| 20260504200320 | 21 | 187 | 9.7 | 16.1 | 0.00 | 0.00 | 0.00 | 53 | 1011.5 |
| 20260504195752 | 20 | 179 | 11.3 | 16.1 | 0.00 | 0.00 | 0.00 | 54 | 1011.8 |
| 20260504195124 | 20 | 188 | 6.4 | 19.3 | 0.00 | 0.00 | 0.00 | 53 | 1011.5 |
| 20260504194552 | 20 | 123 | 9.7 | 12.9 | 0.00 | 0.00 | 0.00 | 53 | 1011.5 |
| 20260504193936 | 21 | 163 | 8.0 | 17.7 | 0.00 | 0.00 | 0.00 | 52 | 1011.8 |
| 20260504193337 | 21 | 162 | 19.3 | 20.9 | 0.00 | 0.00 | 0.00 | 53 | 1011.8 |
| 20260504192722 | 21 | 258 | 8.0 | 27.4 | 0.00 | 0.00 | 0.00 | 52 | 1011.8 |
| 20260504192139 | 21 | 150 | 11.3 | 32.2 | 0.00 | 0.00 | 0.00 | 51 | 1011.8 |
| 20260504191533 | 21 | 198 | 14.5 | 19.3 | 0.00 | 0.00 | 0.00 | 51 | 1011.8 |
| 20260504190949 | 21 | 212 | 6.4 | 9.7 | 0.00 | 0.00 | 0.00 | 55 | 1011.8 |
| 20260504185733 | 20 | 146 | 14.5 | 30.6 | 0.00 | 0.00 | 0.00 | 52 | 1011.8 |
| 20260504184535 | 21 | 180 | 22.5 | 29.0 | 0.00 | 0.00 | 0.00 | 50 | 1011.8 |
| 20260504183943 | 21 | 143 | 12.9 | 24.1 | 0.00 | 0.00 | 0.00 | 51 | 1011.8 |
| 20260504183329 | 21 | 187 | 4.8 | 16.1 | 0.00 | 0.00 | 0.00 | 52 | 1011.8 |
| 20260504182741 | 21 | 173 | 12.9 | 24.1 | 0.00 | 0.00 | 0.00 | 50 | 1011.8 |
| 20260504182142 | 21 | 206 | 8.0 | 29.0 | 0.00 | 0.00 | 0.00 | 51 | 1011.8 |
| 20260504181512 | 20 | 185 | 4.8 | 9.7 | 0.00 | 0.00 | 0.00 | 53 | 1012.1 |
| 20260504180923 | 20 | 189 | 16.1 | 27.4 | 0.00 | 0.00 | 0.00 | 51 | 1011.8 |
| 20260504180320 | 20 | 257 | 3.2 | 25.7 | 0.00 | 0.00 | 0.00 | 51 | 1012.1 |
| 20260504175748 | 20 | 161 | 11.3 | 29.0 | 0.00 | 0.00 | 0.00 | 53 | 1012.5 |
| 20260504174534 | 20 | 205 | 11.3 | 32.2 | 0.00 | 0.00 | 0.00 | 54 | 1012.1 |
| 20260504173931 | 20 | 157 | 14.5 | 20.9 | 0.00 | 0.00 | 0.00 | 55 | 1012.5 |
| 20260504172713 | 20 | 121 | 12.9 | 19.3 | 0.00 | 0.00 | 0.00 | 53 | 1012.8 |
| 20260504172134 | 19 | 142 | 12.9 | 27.4 | 0.00 | 0.00 | 0.00 | 56 | 1012.5 |
| 20260504171554 | 19 | 185 | 12.9 | 27.4 | 0.00 | 0.00 | 0.00 | 54 | 1013.2 |
| 20260504170919 | 18 | 146 | 16.1 | 25.7 | 0.00 | 0.00 | 0.00 | 55 | 1012.8 |
| 20260504170335 | 18 | 190 | 11.3 | 32.2 | 0.00 | 0.00 | 0.00 | 57 | 1013.2 |
| 20260504160347 | 17 | 156 | 14.5 | 29.0 | 0.00 | 0.00 | 0.00 | 58 | 1013.8 |
| 20260504141236 | 16 | 181 | 11.3 | 20.9 | 0.00 | 0.00 | 0.00 | 55 | 1014.5 |
| 20260504140653 | 15 | 170 | 14.5 | 29.0 | 0.00 | 0.00 | 0.00 | 55 | 1014.5 |
| 20260504130633 | 13 | 213 | 14.5 | 20.9 | 0.00 | 0.00 | 0.00 | 57 | 1014.5 |
| 20260504110627 | 9 | 128 | 6.4 | 14.5 | 0.00 | 0.00 | 0.00 | 75 | 1014.9 |
| 20260504081814 | 10 | 115 | 11.3 | 12.9 | 0.00 | 0.00 | 0.00 | 68 | 1015.5 |
| 20260504081216 | 10 | 53 | 0.0 | 4.8 | 0.00 | 0.00 | 0.00 | 65 | 1015.5 |
| 20260504080626 | 10 | 127 | 4.8 | 4.8 | 0.00 | 0.00 | 0.00 | 65 | 1015.5 |